Albany, OH

7:16 AM EST on February 11, 2016 (GMT -0500)
Ohio University

Weather History for KUNI - April, 2014

Change the Weather History Date:

Friday, April 18, 2014

  Actual Average (KPKB) Record (KPKB)
Temperature  
Mean Temperature 53 °F 55 °F  
Max Temperature 69 °F 67 °F 94 °F (1976)
Min Temperature 37 °F 43 °F 28 °F (1951)
Degree Days  
Heating Degree Days 12 11  
Month to date heating degree days 238  
Since 1 July heating degree days 4699  
Cooling Degree Days 0 1  
Month to date cooling degree days 8  
Year to date cooling degree days 11  
Growing Degree Days 3 (Base 50)    
Moisture  
Dew Point 33 °F    
Average Humidity 51    
Maximum Humidity 83    
Minimum Humidity 24    
Precipitation  
Precipitation 0.00 in 0.10 in 0.90 in (2000)
Month to date precipitation 1.93  
Year to date precipitation 11.31  
Sea Level Pressure  
Sea Level Pressure 30.26 in    
Wind  
Wind Speed 2 mph (West)    
Max Wind Speed 10 mph    
Max Gust Speed -    
Visibility 10 miles    
Events      
T = Trace of Precipitation, MM = Missing Value Source: NWS Daily Summary

Daily Weather History Graph

Daily Weather History Graph

Search for Another Location

Airport or City:

Trip Planner

Search our weather history database for the weather conditions in past years. The results will help you decide how hot, cold, wet, or windy it might be!

Date:

Astronomy

Apr. 18, 2014 Rise Set
Actual Time 6:47 AM EDT 8:09 PM EDT
Civil Twilight 6:19 AM EDT 8:37 PM EDT
Nautical Twilight 5:46 AM EDT 9:10 PM EDT
Astronomical Twilight 5:11 AM EDT 9:46 PM EDT
Moon 11:52 PM EDT (4/18) 9:09 AM EDT (4/18)
Length of Visible Light 14h 17m
Length of Day
13h 21m
Waning Gibbous, 87% of the Moon is Illuminated
Apr 18
Waning Gibbous
Apr 22
Last Quarter
Apr 29
New
May 6
First Quarter
May 14
Full

Hourly Weather History & Observations

Time (EDT) Temp. Windchill Dew Point Humidity Pressure Visibility Wind Dir Wind Speed Gust Speed Precip Events Conditions
12:15 AM 42.3 °F - 34.7 °F 75% 30.30 in 10.0 mi Calm Calm - N/A   Clear
12:35 AM 45.3 °F 44.0 °F 32.0 °F 60% 30.29 in 10.0 mi SSE 3.5 mph - N/A   Clear
12:55 AM 48.2 °F - 29.1 °F 48% 30.30 in 10.0 mi SSE 4.6 mph - N/A   Clear
1:15 AM 47.5 °F - 29.5 °F 50% 30.30 in 10.0 mi Calm Calm - N/A   Clear
1:35 AM 47.7 °F - 29.8 °F 50% 30.29 in 10.0 mi Calm Calm - N/A   Clear
1:55 AM 47.8 °F - 29.1 °F 48% 30.29 in 10.0 mi SSE 3.5 mph - N/A   Clear
2:15 AM 41.0 °F - 32.2 °F 71% 30.28 in 10.0 mi Calm Calm - N/A   Clear
2:35 AM 39.6 °F - 32.9 °F 77% 30.28 in 10.0 mi Calm Calm - N/A   Clear
2:55 AM 40.5 °F 38.4 °F 32.7 °F 74% 30.27 in 10.0 mi SSE 3.5 mph - N/A   Clear
3:15 AM 38.8 °F - 33.3 °F 80% 30.27 in 10.0 mi Calm Calm - N/A   Clear
3:35 AM 38.8 °F - 32.9 °F 79% 30.27 in 10.0 mi Calm Calm - N/A   Clear
3:55 AM 39.4 °F - 33.1 °F 78% 30.27 in 10.0 mi Calm Calm - N/A   Clear
4:15 AM 39.6 °F - 32.9 °F 77% 30.27 in 10.0 mi Calm Calm - N/A   Clear
4:35 AM 38.7 °F - 32.9 °F 80% 30.28 in 10.0 mi Calm Calm - N/A   Clear
4:55 AM 39.0 °F - 32.9 °F 79% 30.29 in 10.0 mi Calm Calm - N/A   Clear
5:15 AM 38.3 °F - 33.3 °F 82% 30.29 in 10.0 mi Calm Calm - N/A   Clear
5:35 AM 38.5 °F - 33.1 °F 81% 30.29 in 10.0 mi Calm Calm - N/A   Clear
5:55 AM 38.3 °F - 33.1 °F 81% 30.29 in 10.0 mi Calm Calm - N/A   Clear
6:15 AM 37.9 °F - 32.9 °F 82% 30.29 in 10.0 mi Calm Calm - N/A   Clear
6:35 AM 38.3 °F - 33.1 °F 81% 30.29 in 10.0 mi Calm Calm - N/A   Clear
6:55 AM 38.3 °F - 33.6 °F 83% 30.30 in 10.0 mi Calm Calm - N/A   Clear
7:15 AM 38.8 °F - 33.8 °F 82% 30.29 in 10.0 mi Calm Calm - N/A   Clear
7:35 AM 39.2 °F - 34.2 °F 82% 30.30 in 10.0 mi Calm Calm - N/A   Clear
7:55 AM 40.1 °F - 34.2 °F 79% 30.31 in 10.0 mi Calm Calm - N/A   Clear
8:15 AM 41.5 °F - 35.4 °F 79% 30.31 in 10.0 mi Calm Calm - N/A   Clear
8:35 AM 42.1 °F - 36.9 °F 82% 30.31 in 10.0 mi Calm Calm - N/A   Clear
8:55 AM 44.1 °F - 33.8 °F 67% 30.31 in 10.0 mi Calm Calm - N/A   Clear
9:15 AM 45.7 °F - 36.9 °F 71% 30.31 in 10.0 mi Calm Calm - N/A   Clear
9:35 AM 47.3 °F - 37.0 °F 68% 30.31 in 10.0 mi Calm Calm - N/A   Clear
9:55 AM 51.8 °F - 28.9 °F 41% 30.31 in 10.0 mi South 3.5 mph - N/A   Clear
10:15 AM 52.7 °F - 29.8 °F 42% 30.32 in 10.0 mi WSW 3.5 mph - N/A   Clear
10:35 AM 54.5 °F - 30.7 °F 40% 30.31 in 10.0 mi Calm Calm - N/A   Clear
10:55 AM 57.2 °F - 30.7 °F 37% 30.31 in 10.0 mi WSW 5.8 mph - N/A   Clear
11:15 AM 59.0 °F - 30.9 °F 35% 30.30 in 10.0 mi WSW 4.6 mph - N/A   Clear
11:35 AM 60.1 °F - 30.6 °F 33% 30.30 in 10.0 mi WSW 3.5 mph - N/A   Clear
11:55 AM 61.9 °F - 31.5 °F 32% 30.30 in 10.0 mi West 3.5 mph - N/A   Clear
12:15 PM 63.1 °F - 31.3 °F 30% 30.29 in 10.0 mi South 3.5 mph - N/A   Clear
12:35 PM 64.0 °F - 31.6 °F 30% 30.29 in 10.0 mi West 3.5 mph - N/A   Clear
12:55 PM 65.3 °F - 32.0 °F 29% 30.29 in 10.0 mi Calm Calm - N/A   Clear
1:15 PM 66.4 °F - 32.7 °F 29% 30.27 in 10.0 mi ESE 3.5 mph - N/A   Clear
1:35 PM 66.4 °F - 31.5 °F 27% 30.27 in 10.0 mi Calm Calm - N/A   Clear
1:55 PM 68.0 °F - 31.5 °F 26% 30.26 in 10.0 mi Calm Calm - N/A   Clear
2:15 PM 68.2 °F - 31.5 °F 26% 30.26 in 10.0 mi West 6.9 mph - N/A   Clear
2:35 PM 68.4 °F - 31.5 °F 25% 30.25 in 10.0 mi NW 3.5 mph - N/A   Clear
2:55 PM 68.7 °F - 31.6 °F 25% 30.25 in 10.0 mi NW 3.5 mph - N/A   Clear
3:15 PM 69.6 °F - 32.7 °F 26% 30.24 in 10.0 mi WSW 10.4 mph - N/A   Clear
3:35 PM 69.4 °F - 31.6 °F 25% 30.23 in 10.0 mi SSE 6.9 mph - N/A   Clear
3:55 PM 69.8 °F - 31.6 °F 24% 30.22 in 10.0 mi SSW 5.8 mph - N/A   Clear
4:15 PM 69.8 °F - 32.7 °F 25% 30.22 in 10.0 mi West 8.1 mph - N/A   Clear
4:35 PM 69.8 °F - 32.4 °F 25% 30.21 in 10.0 mi NW 5.8 mph - N/A   Clear
4:55 PM 69.3 °F - 31.5 °F 25% 30.21 in 10.0 mi NNW 4.6 mph - N/A   Clear
5:15 PM 68.9 °F - 32.9 °F 26% 30.20 in 10.0 mi WNW 10.4 mph - N/A   Clear
5:35 PM 69.1 °F - 32.2 °F 25% 30.20 in 10.0 mi Calm Calm - N/A   Clear
5:55 PM 69.4 °F - 32.4 °F 25% 30.19 in 10.0 mi West 8.1 mph - N/A   Clear
6:15 PM 68.9 °F - 32.0 °F 25% 30.19 in 10.0 mi West 9.2 mph - N/A   Clear
6:35 PM 69.1 °F - 32.2 °F 25% 30.19 in 10.0 mi WNW 6.9 mph - N/A   Clear
6:55 PM 68.4 °F - 33.6 °F 28% 30.19 in 10.0 mi WNW 4.6 mph - N/A   Clear
7:15 PM 67.6 °F - 32.4 °F 27% 30.19 in 10.0 mi NW 8.1 mph - N/A   Clear
7:35 PM 66.4 °F - 32.2 °F 28% 30.19 in 10.0 mi NW 6.9 mph - N/A   Clear
7:55 PM 65.3 °F - 31.6 °F 28% 30.19 in 10.0 mi NW 4.6 mph - N/A   Clear
8:15 PM 63.9 °F - 32.0 °F 30% 30.20 in 10.0 mi NW 3.5 mph - N/A   Clear
8:35 PM 63.3 °F - 32.0 °F 31% 30.19 in 10.0 mi Calm Calm - N/A   Clear
8:55 PM 59.0 °F - 34.9 °F 40% 30.20 in 10.0 mi Calm Calm - N/A   Clear
9:15 PM 57.2 °F - 35.1 °F 43% 30.21 in 10.0 mi Calm Calm - N/A   Clear
9:35 PM 56.7 °F - 36.7 °F 47% 30.21 in 10.0 mi Calm Calm - N/A   Clear
9:55 PM 55.0 °F - 36.5 °F 50% 30.22 in 10.0 mi Calm Calm - N/A   Clear
10:15 PM 53.1 °F - 38.3 °F 57% 30.22 in 10.0 mi Calm Calm - N/A   Clear
10:35 PM 51.3 °F - 38.1 °F 61% 30.22 in 10.0 mi Calm Calm - N/A   Clear
10:55 PM 51.3 °F - 40.3 °F 66% 30.22 in 10.0 mi Calm Calm - N/A   Clear
11:15 PM 49.8 °F - 39.6 °F 68% 30.22 in 10.0 mi Calm Calm - N/A   Clear
11:35 PM 48.2 °F - 40.1 °F 74% 30.22 in 10.0 mi Calm Calm - N/A   Clear
11:55 PM 49.3 °F - 39.6 °F 69% 30.22 in 10.0 mi Calm Calm - N/A   Clear